GEFSMA_850_meantemp_000.txt.gz
Temperature
17 17 17 17 18 18 18 18 16 16 18 18 18 18 18 18 18 18 19 19 18 18 18 18 18 18 18 18 18 18 18 18 17 17 17 17 17 17 17 17 17 17 17
17 17 17 17 17 18 18 17 16 16 18 18 18 18 18 19 19 19 19 18 18 18 18 18 18 18 18 18 18 18 18 18 18 17 17 17 17 17 17 17 17 17 17
17 17 17 16 17 17 17 16 16 17 19 19 18 18 19 19 19 18 19 19 18 18 18 18 18 18 18 18 18 18 18 18 18 17 17 17 17 17 17 17 17 17 17
17 17 17 17 17 17 17 17 16 18 18 18 19 19 19 19 17 18 18 18 18 18 18 18 18 18 18 18 18 18 18 18 18 18 18 17 17 17 17 17 17 17 17
16 16 16 16 16 16 16 16 16 16 17 17 18 18 19 19 19 18 17 19 18 18 18 18 18 18 18 18 18 18 18 18 18 18 18 18 18 17 17 17 17 17 17
16 16 16 16 15 15 16 16 16 16 16 16 16 17 17 18 18 17 16 17 18 17 18 18 17 17 18 18 18 18 18 18 19 19 19 19 18 18 18 17 17 17 17
15 15 15 15 15 15 15 15 15 16 16 16 16 16 16 17 18 17 16 17 17 17 17 18 17 18 18 18 18 19 19 19 20 20 19 19 19 18 18 18 18 17 17
15 15 15 14 14 14 14 14 14 15 16 17 17 16 17 18 18 18 17 16 17 17 17 17 17 18 18 17 17 18 19 20 20 20 20 19 19 18 18 18 18 18 17
15 15 15 14 15 14 14 14 14 14 15 16 16 16 17 18 19 18 17 16 17 17 17 17 18 18 18 17 17 17 18 19 19 19 19 18 18 18 18 18 18 18 17
15 15 14 13 14 14 13 13 13 13 14 15 16 16 16 16 17 17 17 16 17 17 17 17 17 17 17 17 17 17 18 17 17 17 17 17 17 17 17 17 17 17 17
14 14 14 13 13 13 13 13 13 13 13 14 15 16 16 16 15 15 16 17 17 17 17 16 16 17 17 17 17 17 17 17 17 16 16 17 16 16 16 16 17 17 17
15 14 13 13 12 12 12 12 13 13 13 14 14 14 15 16 16 16 16 17 18 18 17 16 16 16 16 16 16 17 16 16 16 16 16 17 17 16 16 16 16 17 17
15 14 14 13 13 12 12 12 12 13 13 13 13 13 14 14 16 17 17 17 17 17 16 15 16 15 15 15 15 16 16 16 16 16 16 16 16 16 16 16 16 16 16
15 15 15 14 13 12 12 13 12 13 13 13 13 14 14 14 14 15 17 17 16 15 15 15 15 15 14 14 15 15 15 15 15 16 16 16 16 16 16 16 16 16 16
16 15 15 14 14 13 12 12 13 13 13 12 13 13 14 14 15 15 16 16 15 15 15 15 14 14 14 14 14 14 14 15 14 15 16 15 15 15 14 15 15 15 15
15 15 15 14 12 12 12 13 13 13 12 12 13 14 14 14 15 15 15 15 15 15 14 14 14 14 14 14 13 13 14 14 15 15 15 15 14 14 14 14 14 14 14
15 14 14 13 12 12 12 13 12 13 13 13 13 13 13 13 14 14 14 14 14 14 14 13 13 13 13 13 13 13 13 14 15 14 13 13 13 13 13 13 13 13 13
13 13 13 13 13 12 12 12 12 12 13 13 13 13 13 13 13 13 13 14 14 14 13 13 12 12 12 12 12 12 12 12 13 12 12 12 12 12 12 12 12 13 13
13 13 13 13 13 12 12 12 12 12 13 13 13 12 13 12 12 12 12 13 13 13 13 13 12 12 12 12 11 11 11 11 12 12 12 12 12 12 12 12 12 13 13
13 13 13 13 13 13 12 12 12 12 13 13 13 13 13 13 13 12 12 12 12 12 12 12 12 12 12 12 12 11 11 11 10 10 11 11 11 11 12 12 12 12 12
13 13 13 13 13 13 13 13 12 12 12 13 13 13 13 13 13 13 12 12 11 11 11 11 12 12 12 13 13 13 12 11 11 11 11 10 10 10 11 11 12 12 12
12 12 12 12 13 13 13 13 12 12 12 12 13 13 13 13 12 12 12 12 11 11 11 12 12 13 13 13 13 13 12 12 11 11 11 10 10 10 10 11 11 11 11
11 12 12 12 12 12 13 12 12 11 12 12 12 12 12 13 12 12 12 12 11 11 12 12 12 12 12 12 12 13 12 13 12 11 11 10 10 10 9 10 10 10 10
10 11 11 11 12 12 12 12 12 11 11 11 12 12 12 12 12 12 11 12 12 12 12 12 12 11 11 11 11 11 11 11 11 11 11 11 11 9 9 9 9 9 9
9 10 11 11 11 11 12 12 11 11 11 11 11 11 11 12 11 11 12 12 12 12 12 12 12 11 11 11 11 11 11 12 12 11 11 12 11 11 9 8 8 8 8
9 9 9 10 10 10 11 12 11 11 11 11 11 11 11 11 12 11 11 12 12 12 11 11 11 11 11 11 11 11 12 13 13 12 10 11 11 11 9 8 8 8 8

GEFSMA_850_meantemp_006.txt.gz
Temperature
19 19 18 18 18 18 18 18 18 18 18 18 18 18 18 18 18 18 18 18 18 18 18 18 18 18 18 18 18 18 18 18 18 18 17 17 17 17 17 17 17 17 17
18 18 18 18 19 18 18 18 19 19 18 18 18 18 18 18 18 18 18 18 18 18 18 18 18 18 18 18 18 18 18 18 18 18 18 17 17 17 17 17 17 17 17
18 18 18 18 18 18 18 18 18 18 18 18 18 18 18 18 18 19 18 18 18 18 18 18 19 19 19 19 18 18 18 18 18 18 18 18 17 17 17 17 17 17 17
18 17 17 17 17 17 17 17 17 18 18 18 18 18 17 17 18 18 18 18 18 18 18 18 18 19 19 19 19 18 18 18 18 18 18 18 18 18 18 17 17 17 17
17 17 17 17 17 17 17 17 17 17 17 17 17 17 17 17 17 17 17 17 17 18 18 18 18 18 19 19 19 19 18 18 18 18 18 18 18 18 18 18 18 18 18
17 17 17 17 16 16 16 16 16 16 16 16 16 17 17 17 17 17 18 18 18 18 18 18 17 17 18 18 19 19 18 18 18 18 18 18 18 18 19 18 18 18 18
17 17 16 16 16 16 16 16 16 16 16 16 16 16 17 17 18 18 18 18 18 18 18 18 17 17 17 18 19 19 19 18 18 18 18 18 18 19 19 18 18 19 18
17 17 16 16 15 15 15 15 15 15 15 15 15 15 16 17 18 19 19 19 19 18 18 17 17 17 17 18 19 19 19 19 18 18 18 18 18 18 19 19 18 18 18
17 17 16 16 15 15 15 15 15 15 14 14 15 15 15 16 17 18 18 19 18 18 18 17 17 17 17 17 18 19 19 19 18 18 18 18 18 18 18 19 19 18 18
18 17 17 16 16 16 16 15 14 15 14 14 14 14 15 15 15 16 17 18 18 18 18 17 17 17 17 17 18 18 18 18 18 18 18 17 17 18 18 18 18 18 17
18 17 17 16 16 16 15 15 15 15 15 14 14 14 14 15 15 15 16 16 17 17 18 18 18 17 17 17 18 18 18 18 17 17 17 17 17 17 17 17 17 17 17
18 18 17 16 16 16 15 15 15 14 14 14 14 14 14 14 14 15 15 16 16 17 17 18 18 17 17 17 17 17 17 17 17 17 17 17 17 17 17 16 16 16 16
18 18 17 17 17 16 16 16 14 14 14 14 14 14 14 14 14 14 15 15 16 17 17 17 17 17 17 17 17 17 17 17 16 16 16 16 16 16 16 16 16 16 16
17 17 17 17 17 16 16 15 14 14 13 14 14 14 14 14 14 14 14 15 15 16 17 17 17 17 16 17 16 16 16 16 16 16 16 16 16 16 16 16 16 16 16
16 16 16 15 15 16 15 15 15 14 14 14 14 14 14 14 14 14 14 14 15 15 15 16 16 16 16 16 16 16 16 16 15 15 15 15 15 15 15 15 15 15 15
15 15 14 14 14 15 15 14 14 14 14 14 14 14 14 14 14 14 14 14 15 15 15 15 16 15 15 15 15 15 15 15 14 14 14 15 15 15 14 14 14 14 14
14 14 14 14 14 14 14 14 14 14 14 14 14 14 14 14 14 14 14 14 14 15 15 15 14 14 14 14 14 14 14 14 14 14 14 14 14 13 13 13 13 13 14
14 14 13 13 13 13 14 14 14 14 14 14 14 14 13 13 14 14 14 14 14 14 14 14 14 13 13 13 13 13 13 14 14 13 13 12 12 13 13 13 13 13 13
12 13 13 13 13 13 13 13 14 13 14 14 14 14 13 13 14 14 14 14 14 14 14 14 13 13 13 12 12 13 13 12 12 12 12 12 12 12 12 13 13 13 13
11 11 12 12 12 12 13 13 13 13 13 14 14 14 13 13 13 14 14 13 13 13 13 13 13 12 12 11 12 12 11 12 11 12 12 11 11 12 12 12 12 12 13
10 10 10 11 11 11 12 12 13 13 13 14 14 13 13 13 13 14 13 13 12 13 13 12 12 11 11 11 11 11 11 11 11 11 11 11 11 11 11 11 12 12 12
10 10 10 10 10 11 11 12 12 12 13 13 13 13 13 13 13 13 13 12 12 12 12 12 11 11 11 11 11 11 11 11 11 11 11 10 11 11 11 11 11 11 11
10 10 10 10 10 10 11 11 12 12 13 13 13 13 13 13 13 13 12 12 12 12 12 12 11 11 11 11 11 11 11 12 12 11 11 10 11 11 10 10 10 10 10
10 10 10 10 10 10 10 10 11 12 12 12 13 13 13 13 12 12 12 12 12 11 11 11 12 11 11 11 11 12 12 12 12 11 11 11 11 11 10 10 10 9 9
10 10 10 10 10 10 10 10 11 11 11 12 12 12 12 12 12 12 12 12 12 11 11 11 12 11 11 11 12 12 12 12 12 11 11 11 10 10 10 10 9 9 9
9 9 10 10 10 9 9 10 10 10 10 11 11 12 12 12 12 12 12 12 12 11 11 11 11 11 12 12 12 12 12 12 12 12 12 11 11 10 9 9 9 9 8

GEFSMA_850_meantemp_012.txt.gz
Temperature
18 18 18 18 18 18 18 18 18 18 18 18 18 18 18 17 18 18 18 18 18 18 18 18 18 18 18 18 18 18 18 18 18 18 18 18 18 17 17 17 17 17 17
18 18 18 18 18 17 17 17 17 17 17 17 17 17 17 17 17 17 18 18 18 18 18 18 17 17 18 18 18 18 18 18 18 18 18 18 18 17 17 17 17 17 17
18 18 18 18 18 17 17 17 17 17 17 17 17 17 17 17 17 17 18 18 18 18 18 18 17 17 17 18 18 18 18 18 18 18 18 18 18 18 17 17 17 17 17
18 18 18 17 17 17 17 17 17 17 16 16 16 16 16 17 17 17 17 18 18 18 18 18 18 17 18 18 18 18 18 18 18 18 18 18 18 18 18 17 17 17 17
18 18 17 17 17 17 17 17 16 16 16 16 16 16 16 16 17 17 17 17 18 18 18 18 18 17 17 17 18 18 18 18 18 18 18 18 18 18 18 18 18 18 18
18 18 17 17 17 16 16 16 16 16 16 15 15 16 16 16 16 17 17 17 17 17 18 18 18 17 17 17 17 18 17 18 18 18 18 18 18 18 18 18 18 18 18
18 18 17 17 16 16 16 16 16 16 16 15 15 15 16 16 16 16 16 17 17 17 17 17 17 17 18 17 17 17 17 17 17 18 18 18 18 18 18 18 18 18 18
18 18 18 17 17 17 17 16 16 16 16 15 15 14 14 15 16 16 16 16 17 17 17 17 17 17 17 17 17 17 17 17 17 17 17 17 17 18 18 18 18 18 18
19 18 18 18 18 18 17 17 17 16 16 16 15 14 13 13 14 16 16 17 17 17 17 17 17 17 17 17 17 17 17 16 17 17 17 17 17 17 18 18 18 18 17
18 18 18 18 18 18 18 17 17 17 16 16 15 14 13 13 13 14 16 16 16 17 17 17 17 17 17 17 17 17 17 16 17 17 17 17 17 17 17 17 17 17 17
18 18 18 18 18 18 18 17 17 17 16 15 15 14 14 14 13 13 14 15 16 17 16 17 17 17 17 17 17 17 17 17 17 16 16 16 16 16 16 17 17 17 17
17 17 17 17 17 17 17 17 17 17 16 15 14 14 14 14 14 13 13 14 15 16 16 17 17 17 17 17 17 16 16 16 16 16 16 16 16 16 16 16 16 17 17
16 17 17 17 17 17 17 17 17 16 16 15 14 14 13 13 13 13 13 13 13 15 16 17 17 17 17 17 17 17 16 16 16 16 16 16 16 16 16 16 16 16 16
14 15 16 16 16 16 16 16 16 16 16 15 14 14 13 13 14 13 13 13 13 13 15 16 16 16 16 17 17 17 16 16 16 16 16 16 16 16 16 16 16 16 16
13 13 14 14 14 14 14 15 15 15 15 15 14 13 13 13 14 14 14 13 13 13 13 15 15 15 16 16 16 16 16 16 16 16 16 16 16 16 16 16 16 16 16
12 13 13 13 13 13 13 14 14 15 15 15 14 13 13 13 13 14 14 14 14 13 13 14 14 14 15 15 15 15 15 15 15 16 16 16 15 15 16 16 15 15 15
11 12 12 12 12 12 13 13 14 14 14 14 14 14 13 13 13 14 14 14 14 14 14 14 13 13 13 14 14 14 14 14 15 15 15 15 15 15 15 14 14 14 14
11 11 11 11 11 11 12 12 13 13 14 14 14 14 13 13 13 14 14 14 14 14 14 13 13 13 13 13 13 12 13 13 14 13 14 14 14 14 13 13 13 13 13
11 10 10 11 11 11 11 11 12 12 13 13 14 13 13 13 13 14 14 14 14 14 14 13 13 13 13 13 12 12 12 12 13 12 12 12 13 13 13 13 13 13 13
10 10 10 10 10 10 10 10 11 11 12 12 13 13 13 13 13 14 14 14 14 14 14 13 13 13 12 12 12 12 11 11 11 11 12 12 12 12 12 12 12 13 13
10 10 10 10 10 10 10 10 10 10 11 12 12 13 13 13 13 13 14 14 14 14 13 13 12 12 12 12 12 11 11 11 11 11 11 11 11 12 12 12 12 12 12
9 9 9 9 10 10 10 10 10 10 10 11 12 12 13 13 13 13 13 14 14 14 13 13 12 12 12 12 11 11 11 11 10 10 11 10 11 11 11 11 11 11 11
9 9 9 9 9 9 10 10 10 10 10 10 11 12 12 13 13 13 13 13 14 13 13 13 13 12 12 12 11 11 11 11 10 10 10 10 10 10 10 10 10 10 10
8 8 8 8 9 9 9 9 9 9 9 10 10 11 11 12 12 13 13 13 13 13 13 12 12 12 12 11 11 11 11 10 10 9 10 10 9 10 10 10 9 9 9
8 8 8 8 8 9 9 9 9 9 9 9 10 10 11 11 12 12 13 13 13 12 12 12 12 12 11 11 11 10 10 10 9 9 9 10 9 9 9 9 9 9 8
7 7 7 7 7 8 9 9 9 9 9 9 9 10 10 11 11 12 12 12 12 12 11 11 11 11 11 11 11 11 11 11 10 9 9 10 9 9 8 8 8 8 8

GEFSMA_850_meantemp_018.txt.gz
Temperature
18 18 18 18 18 17 17 17 17 17 17 17 17 17 17 17 18 18 18 18 18 18 18 18 18 18 18 18 17 17 17 17 17 17 17 17 17 17 17 17 17 17 17
17 17 17 17 17 17 17 17 17 17 17 17 17 17 17 18 18 18 18 18 18 18 18 18 18 18 18 18 18 17 17 17 17 17 17 17 17 17 17 17 17 17 17
17 17 17 17 17 17 17 17 17 17 17 17 17 17 17 17 17 17 17 18 18 18 18 18 18 18 18 18 18 18 17 17 17 17 17 17 17 17 17 17 17 17 17
17 17 17 17 17 17 17 17 17 17 17 17 17 16 17 17 17 17 17 17 17 18 18 18 18 18 18 18 18 18 18 17 17 17 17 17 17 17 17 17 17 16 16
17 17 17 17 17 16 16 16 16 16 16 16 16 16 16 16 16 16 16 17 17 17 17 17 17 18 18 18 18 18 18 18 17 17 17 17 17 17 17 17 17 17 16
17 17 17 17 16 16 16 16 16 16 16 16 15 16 16 16 16 16 16 17 17 17 17 17 17 18 18 18 18 18 18 18 18 18 17 17 17 17 17 17 17 17 17
17 17 17 17 16 16 16 15 15 15 15 15 15 15 16 16 16 16 16 16 16 16 16 17 17 17 17 17 17 17 17 17 17 18 17 17 17 17 17 17 17 17 17
17 17 17 17 17 16 16 16 16 15 15 15 15 15 16 16 16 16 16 15 15 16 16 16 17 17 17 17 17 17 17 17 17 17 17 17 17 17 17 17 17 17 17
17 17 17 17 17 17 16 16 16 16 16 15 15 15 15 15 15 15 15 15 15 15 16 16 17 17 17 17 17 17 17 17 17 17 17 17 17 17 17 17 17 17 17
17 17 17 17 17 17 17 17 17 16 16 15 15 15 15 15 15 15 15 15 15 15 16 16 17 17 17 17 18 18 18 17 17 17 17 17 17 17 17 16 16 17 17
17 17 17 17 17 16 16 16 17 17 16 16 15 15 14 14 14 14 14 15 15 16 15 16 16 17 17 17 17 17 18 17 17 17 17 17 17 17 16 16 16 16 16
16 16 16 16 16 16 16 16 16 16 16 16 16 15 15 14 14 14 13 14 15 16 16 16 16 16 16 17 17 17 17 17 17 17 17 17 17 16 16 16 16 16 16
14 14 15 15 15 16 16 16 15 15 16 16 16 16 15 15 14 14 13 13 13 14 15 15 15 16 16 16 16 17 17 17 17 17 17 17 16 16 16 16 16 16 16
13 13 13 14 14 14 15 15 15 15 15 15 16 16 15 15 14 14 13 13 12 12 14 15 15 15 16 16 16 16 16 17 17 17 16 16 16 16 16 16 15 15 15
13 13 13 13 13 13 13 14 14 14 14 14 15 15 15 15 15 14 14 13 12 12 13 14 14 14 15 15 16 16 16 16 16 16 16 16 16 16 16 15 15 15 15
12 12 12 12 12 12 12 12 12 13 13 13 14 14 14 15 14 14 14 13 13 12 12 13 13 13 14 14 15 15 16 16 16 16 16 16 16 15 15 15 15 15 15
11 11 11 11 11 11 12 12 12 12 12 12 13 13 14 14 14 14 14 13 13 13 12 13 13 13 13 13 13 14 14 15 15 15 15 15 15 15 15 15 15 15 15
11 11 11 11 11 11 11 11 11 11 11 11 12 12 13 13 13 13 14 14 13 13 13 13 13 12 12 12 12 12 13 13 14 14 14 15 15 14 14 14 14 14 14
11 11 11 10 10 10 10 10 10 11 11 11 11 11 12 12 13 13 14 14 13 13 13 13 12 12 12 12 12 12 12 12 12 13 13 13 14 14 14 13 13 13 13
11 11 11 10 10 10 10 10 10 10 10 10 10 11 11 12 12 13 13 14 13 13 13 13 12 12 12 12 12 12 11 11 11 12 12 12 12 13 13 13 13 13 13
11 11 10 10 10 10 10 10 10 10 10 10 10 10 11 11 12 12 13 13 13 13 13 13 12 12 12 12 12 11 11 11 11 11 11 12 12 12 12 12 12 12 12
10 10 10 10 10 9 9 9 9 9 9 9 9 10 10 10 11 12 12 13 13 13 13 13 12 12 12 12 12 11 11 11 10 10 11 11 11 11 11 12 12 12 12
9 9 9 9 9 9 9 9 9 9 9 9 9 9 10 10 11 11 12 12 13 13 13 13 13 12 12 12 12 12 11 11 11 10 11 10 10 11 11 11 11 11 11
7 8 8 9 9 9 9 9 9 9 9 9 9 9 9 10 10 11 12 12 12 13 13 13 13 13 12 12 12 12 11 11 10 10 10 10 10 10 10 10 10 10 10
6 6 7 7 8 8 8 8 8 8 9 9 9 9 9 9 10 10 11 11 12 12 13 13 12 12 12 12 12 11 11 10 9 9 9 10 9 9 9 9 9 8 8
4 5 6 7 7 7 8 8 8 8 8 9 9 9 9 9 9 10 10 11 11 12 12 12 12 12 12 12 12 12 11 11 10 8 9 9 9 9 8 8 8 8 8

GEFSMA_850_meantemp_024.txt.gz
Temperature
18 18 18 18 17 17 17 17 17 17 17 17 17 17 18 18 18 18 18 18 18 18 18 18 18 18 18 17 17 17 17 17 17 17 17 17 17 17 17 17 17 17 17
17 17 17 17 17 17 17 17 17 17 17 17 17 17 17 17 17 17 18 18 18 18 18 18 18 18 18 18 17 17 17 17 17 17 16 17 17 17 17 17 17 17 17
17 17 17 17 17 17 17 17 17 17 17 17 17 17 17 17 17 17 17 17 17 18 18 18 18 18 18 18 18 17 17 17 17 17 17 16 16 17 17 17 17 17 17
16 16 17 17 17 17 17 17 17 17 17 17 17 17 17 17 17 17 17 17 17 17 17 18 18 18 18 18 18 18 18 17 17 17 17 17 16 16 17 17 17 17 17
15 16 16 16 17 17 17 17 17 17 17 17 17 17 17 17 17 17 17 17 17 17 17 17 17 18 18 18 18 18 18 18 17 17 17 17 17 17 17 17 17 17 16
15 15 16 16 16 16 16 16 16 16 16 16 17 17 17 17 17 17 16 17 17 16 17 17 16 17 17 18 18 18 18 18 17 17 17 17 17 17 17 17 17 17 17
15 15 15 16 16 16 16 16 16 16 16 16 16 17 17 17 17 16 16 17 17 17 16 16 16 16 17 17 18 18 18 18 17 17 17 17 17 17 17 17 17 17 17
15 15 15 15 15 15 16 16 16 16 16 16 16 17 18 18 17 17 16 16 16 17 16 16 16 16 16 17 17 18 18 18 18 17 17 17 17 17 17 17 17 17 17
15 15 16 15 15 15 15 16 15 15 16 16 16 17 18 20 20 18 16 16 16 16 16 16 16 16 16 16 17 17 17 18 18 17 17 17 17 17 17 17 17 17 17
15 15 15 15 15 15 15 15 15 15 15 16 16 16 16 17 18 19 17 17 16 15 16 16 16 16 16 16 16 17 17 17 17 17 17 17 17 17 17 17 17 17 17
14 15 15 15 15 15 15 15 15 15 15 16 16 16 16 15 16 17 19 18 16 16 16 15 16 16 16 16 16 16 17 17 17 17 17 17 17 17 17 17 17 17 17
14 14 14 14 15 15 15 15 15 15 15 15 16 16 16 16 16 17 17 17 17 17 16 16 16 16 16 16 16 16 17 17 17 17 17 17 17 17 17 17 16 17 17
13 13 13 14 14 14 14 14 15 15 15 15 15 15 16 16 17 17 17 17 16 16 16 15 15 15 15 16 16 16 17 17 17 17 17 17 17 17 17 16 16 16 16
13 13 13 13 13 13 13 14 14 14 14 14 15 15 15 15 16 16 16 16 16 17 16 16 15 14 15 16 16 16 16 17 17 17 17 17 17 17 16 16 16 16 16
12 12 12 12 12 12 12 13 13 13 13 13 14 14 14 15 15 15 15 15 16 18 18 15 15 14 15 15 16 16 16 17 17 17 17 17 17 17 16 16 16 16 16
11 11 11 11 11 12 12 12 12 12 12 12 13 13 13 14 14 14 15 15 15 16 17 16 15 14 14 14 15 15 16 16 16 16 16 16 16 16 16 16 16 15 15
10 10 10 10 11 11 11 11 11 11 11 12 12 12 13 13 13 14 14 14 14 15 15 16 15 14 14 14 14 15 15 15 16 16 16 16 16 16 16 16 15 15 15
9 9 10 10 10 11 11 11 11 11 11 11 11 11 11 12 12 13 13 13 14 14 14 15 14 14 14 14 14 14 14 14 15 15 15 16 16 16 15 15 15 15 15
8 8 9 9 10 10 10 11 11 11 10 10 10 11 11 11 11 12 12 13 13 13 13 14 14 14 13 13 13 13 13 13 13 13 14 14 15 15 15 15 14 14 14
7 7 8 8 9 9 10 10 10 10 10 10 10 10 10 10 10 11 11 12 12 13 13 13 14 14 13 13 13 12 12 12 12 12 13 13 13 14 14 14 14 13 13
6 6 7 7 8 9 9 10 10 10 10 10 10 10 10 10 10 10 10 11 11 12 13 13 13 13 13 13 12 12 12 12 12 12 12 12 12 12 12 12 13 12 12
5 6 6 6 7 8 9 9 10 10 10 10 10 10 10 10 10 10 10 10 10 11 12 12 13 13 13 13 12 12 12 11 11 11 11 11 11 11 11 12 12 12 12
5 5 5 6 6 7 8 9 9 9 10 10 9 9 10 10 9 10 10 10 10 10 11 11 12 13 13 13 12 12 12 12 11 11 11 11 10 10 11 11 11 11 11
4 4 5 5 5 6 7 8 9 9 9 9 9 9 9 10 9 9 9 10 10 10 11 11 12 12 13 13 13 13 12 11 11 11 10 10 9 10 10 11 10 11 11
4 4 4 4 5 6 6 7 8 8 8 9 9 9 9 9 9 9 9 9 10 10 10 11 11 12 12 12 12 12 11 11 10 10 10 10 9 9 9 9 9 9 9
4 4 4 4 5 5 6 7 7 8 8 8 8 9 9 9 9 9 9 9 10 10 10 10 11 11 12 12 12 12 12 11 11 9 9 9 9 9 7 7 8 8 8

GEFSMA_850_meantemp_030.txt.gz
Temperature
18 18 18 18 18 18 18 18 18 18 18 18 18 18 18 18 18 19 19 19 19 19 19 19 19 19 19 19 18 18 18 18 18 18 18 18 18 18 17 17 17 17 17
18 18 18 18 18 18 17 17 17 17 17 17 18 18 18 18 18 19 18 18 18 18 19 19 19 19 19 19 18 18 18 18 18 18 18 18 18 18 18 18 17 17 17
17 17 17 17 17 17 17 17 17 17 17 17 17 18 18 18 18 18 18 18 18 18 18 18 19 19 19 19 19 18 18 18 18 18 17 17 18 17 17 18 17 17 17
17 17 16 16 16 16 16 16 16 17 17 17 17 17 17 18 18 18 18 18 18 18 18 18 18 18 19 19 18 18 18 18 18 18 18 17 17 17 17 17 17 17 17
16 16 16 16 16 16 16 16 16 16 16 16 16 17 17 17 18 18 18 18 17 17 17 18 18 18 18 18 18 18 18 18 18 18 18 18 18 17 17 17 17 17 17
15 15 16 16 15 15 15 15 15 15 16 16 16 16 17 17 17 17 18 17 17 17 17 17 18 18 18 18 18 18 18 18 18 18 18 18 18 18 17 17 17 17 17
15 15 15 15 15 15 15 15 15 15 15 15 15 16 16 17 17 17 18 17 17 17 17 17 17 18 18 17 17 18 18 18 18 18 18 18 18 18 18 17 17 17 17
15 14 15 15 15 15 15 15 15 15 15 15 15 16 16 17 17 18 18 18 17 17 17 17 17 17 17 17 17 17 18 18 18 18 18 18 18 18 18 17 17 17 17
14 14 14 15 15 15 15 15 15 15 15 15 15 16 16 17 18 18 18 18 18 18 18 18 18 17 17 17 17 17 17 18 17 18 18 18 17 17 17 17 17 17 17
14 14 14 14 14 14 15 15 15 15 15 15 15 16 16 17 17 18 18 18 18 18 18 18 18 17 17 17 17 17 17 17 17 17 17 18 17 17 17 17 17 17 17
14 14 14 14 14 14 14 14 14 15 15 15 15 15 16 16 17 17 18 18 18 18 17 18 18 18 17 17 17 17 17 17 17 17 17 17 17 17 17 17 17 17 17
14 14 14 14 14 14 14 14 14 14 14 15 15 15 15 16 17 18 18 18 18 18 17 17 17 17 17 17 17 17 17 17 17 17 17 17 17 17 17 17 17 17 17
13 13 13 13 13 13 13 14 14 14 14 14 15 15 15 15 16 17 18 18 18 18 17 17 17 17 17 17 17 17 17 17 17 17 17 17 17 17 17 17 17 17 17
12 12 12 12 12 12 13 13 13 13 14 14 14 14 15 15 16 16 17 18 18 18 18 17 17 17 17 16 16 16 16 16 17 17 17 17 17 17 17 17 17 16 16
11 11 11 12 12 12 12 12 12 13 13 13 14 14 14 15 15 16 17 17 17 18 18 17 17 17 17 16 16 16 16 16 16 17 17 17 17 17 17 17 17 16 16
9 10 10 10 11 11 11 11 12 12 12 13 13 13 14 14 15 15 16 16 17 17 17 17 17 16 16 16 16 16 16 16 16 16 17 17 17 17 17 17 16 16 16
9 9 9 9 10 10 10 11 11 11 12 12 12 13 13 13 14 14 15 15 16 16 17 17 16 16 16 16 15 15 15 16 16 16 16 16 17 17 17 16 16 16 16
8 8 8 8 9 9 9 10 10 11 11 11 12 12 12 12 13 13 14 15 15 15 15 16 16 15 15 15 15 14 14 15 15 16 16 16 16 16 16 16 16 16 16
8 8 8 8 8 8 9 9 10 10 10 11 11 11 11 12 12 12 13 14 14 14 15 15 15 15 15 15 14 14 14 14 14 15 15 15 16 16 16 16 16 16 15
8 8 8 7 7 8 8 8 9 9 10 10 11 11 11 11 11 12 12 13 13 14 14 14 15 15 15 14 14 14 13 13 13 13 14 14 15 15 15 15 15 15 15
8 7 7 7 7 7 8 8 8 9 9 9 10 10 11 11 11 11 11 12 12 13 13 14 14 14 14 14 14 14 13 12 12 12 12 13 13 14 14 14 14 14 14
7 7 7 7 7 7 7 8 8 8 8 9 9 10 10 11 11 11 11 11 11 12 12 13 13 14 14 14 14 14 13 12 12 12 12 12 12 12 13 13 13 13 13
7 7 7 7 7 7 7 7 7 7 8 8 8 9 9 10 10 11 11 11 11 11 11 12 12 13 13 13 14 13 13 12 12 12 12 11 11 12 12 12 12 12 12
7 7 7 7 7 6 6 6 7 7 7 7 8 8 9 10 10 10 10 10 11 11 11 11 12 12 13 13 13 14 13 12 12 11 11 11 11 11 11 11 11 11 12
7 7 7 7 6 6 6 6 6 6 6 7 8 8 9 9 10 10 10 10 10 10 11 11 11 12 12 12 13 13 12 12 11 11 11 11 11 11 11 11 11 11 11
7 7 7 7 6 6 6 6 6 6 6 7 7 8 8 9 9 10 10 10 10 10 10 10 11 11 11 12 12 12 13 12 12 11 11 11 11 11 10 10 10 10 10

GEFSMA_850_meantemp_036.txt.gz
Temperature
17 17 17 17 17 17 17 17 17 17 17 17 17 17 18 18 19 19 19 19 19 19 18 18 18 18 19 19 19 19 18 18 18 18 18 18 18 18 18 17 17 17 17
17 17 17 17 17 17 17 17 16 16 16 16 16 17 17 17 18 18 18 18 18 18 18 18 18 18 18 18 19 19 18 18 18 18 18 18 18 18 18 18 17 17 17
17 17 17 16 16 17 16 16 16 16 16 16 16 16 16 17 17 17 18 18 18 18 18 18 18 18 18 18 18 18 18 18 18 18 18 18 18 18 18 18 18 17 17
16 16 16 16 16 16 16 16 16 16 16 15 15 16 16 16 16 17 17 17 17 17 17 17 17 18 18 18 18 18 18 18 18 18 18 18 18 18 18 18 18 18 17
15 15 16 15 15 15 15 15 15 15 15 15 15 15 16 16 16 16 16 17 17 17 17 17 17 17 18 18 18 18 18 18 18 18 18 17 17 17 17 17 17 17 17
15 15 15 15 15 15 15 15 15 15 15 15 15 15 15 15 16 16 16 16 16 17 17 17 17 17 18 18 18 18 18 18 18 18 18 17 17 17 17 17 17 17 17
14 14 14 14 14 14 14 14 14 14 14 14 14 14 15 15 16 16 16 16 16 17 17 17 17 17 17 17 18 18 18 18 18 18 18 17 17 17 17 17 17 17 17
13 13 14 14 14 14 14 14 14 14 14 14 14 14 14 15 15 16 16 16 16 16 16 17 17 17 17 17 18 18 18 18 18 17 17 17 17 17 17 17 17 17 16
13 13 13 13 14 14 14 14 14 14 14 14 14 14 14 14 15 16 16 16 16 16 16 17 17 17 17 17 17 18 18 18 17 17 17 17 17 17 17 17 17 17 16
13 13 13 13 13 13 13 13 13 13 13 13 13 13 14 14 14 15 16 16 16 16 16 16 17 17 17 17 17 17 17 17 17 17 17 17 17 17 17 17 17 17 17
12 12 12 12 12 13 13 13 13 13 13 13 13 13 14 14 14 14 15 16 16 16 16 16 16 17 17 17 17 17 17 17 17 17 17 17 17 17 17 17 17 17 17
12 12 12 12 12 12 12 12 12 13 13 13 13 13 13 13 14 14 14 15 16 16 16 16 16 17 17 17 17 17 17 17 17 17 17 16 16 16 16 16 17 16 16
10 11 11 11 11 11 11 12 12 12 12 13 13 13 13 13 14 14 14 15 15 16 16 16 16 17 17 17 17 17 17 16 16 16 16 16 16 16 16 16 16 16 16
10 10 10 10 10 11 11 11 11 11 12 12 12 13 13 13 13 14 14 14 15 15 16 16 16 17 17 17 17 17 17 16 16 16 16 16 16 16 16 16 16 16 16
9 9 9 10 10 10 10 10 11 11 11 11 12 12 13 13 13 13 13 14 14 15 15 16 16 16 16 17 17 16 16 16 16 16 16 16 16 16 16 16 16 16 16
9 9 9 9 9 9 10 10 10 10 10 11 11 11 12 12 13 13 13 13 14 14 15 16 16 16 16 16 16 16 16 16 16 16 16 16 16 16 16 16 16 16 16
9 8 8 9 9 9 9 9 9 9 10 10 10 11 11 12 12 12 13 13 13 14 14 15 16 16 16 16 16 16 16 16 16 16 16 16 16 16 16 16 16 16 16
8 8 8 8 8 8 9 9 9 9 9 9 10 10 10 11 11 12 12 12 13 13 14 14 15 15 15 16 16 16 16 16 16 16 16 16 16 16 16 16 16 16 16
8 8 8 8 8 8 8 8 8 9 9 9 9 9 10 10 10 11 11 12 12 13 13 14 14 15 15 15 15 15 15 15 15 15 16 16 16 16 16 16 16 16 16
8 8 8 8 8 8 8 8 8 8 8 9 9 9 9 9 10 10 11 11 11 12 12 13 14 14 14 15 15 15 14 14 15 15 15 15 15 15 16 16 16 16 16
8 7 7 7 7 7 8 8 7 7 7 8 8 8 8 9 9 10 10 10 11 11 12 12 13 13 14 14 14 14 14 14 14 14 14 14 15 15 15 15 15 15 15
7 7 7 7 7 7 7 7 7 7 7 7 7 8 8 8 9 9 9 10 10 11 11 11 12 12 13 14 14 14 14 13 12 12 13 13 13 13 14 14 14 15 15
7 7 7 7 7 8 7 7 7 7 6 7 7 7 7 8 8 8 9 9 10 10 10 11 11 12 12 13 13 14 14 14 14 13 12 12 12 12 12 13 13 14 14
7 7 8 8 7 8 7 7 7 6 6 6 6 7 7 7 8 8 8 9 9 10 10 10 11 11 12 12 13 14 14 13 13 12 12 12 11 11 11 12 12 12 13
7 8 8 8 8 8 7 7 7 6 6 6 6 6 6 7 7 7 8 8 9 9 10 10 10 11 11 12 12 12 12 12 12 11 11 11 11 11 11 11 11 11 11
8 8 8 8 8 7 7 7 7 6 6 6 6 6 6 6 7 7 7 8 8 9 9 10 10 10 10 11 11 12 12 12 12 11 11 11 11 11 10 10 10 11 11

GEFSMA_850_meantemp_042.txt.gz
Temperature
17 16 16 16 16 16 16 16 16 17 17 17 16 17 17 17 17 17 17 18 18 18 18 18 18 17 17 17 17 18 18 18 18 18 18 17 17 17 17 17 17 17 17
16 16 16 16 16 16 16 16 16 16 16 16 16 16 16 16 17 17 17 17 17 18 18 18 18 18 17 17 17 17 17 18 18 18 18 18 17 17 17 17 17 17 17
16 15 15 15 15 15 16 16 16 16 16 16 16 16 16 16 16 16 17 17 17 17 18 18 18 18 18 17 17 17 17 17 18 18 18 18 17 17 17 17 17 17 17
15 15 15 15 15 15 15 15 15 15 15 15 15 16 16 16 16 16 16 16 17 17 17 17 17 17 18 17 17 17 17 17 17 17 18 18 18 17 17 17 17 17 17
14 14 14 14 14 14 14 14 15 15 15 15 15 15 15 15 15 16 16 16 16 17 17 17 17 17 17 17 17 17 17 17 17 17 17 17 17 17 17 17 17 17 17
14 14 14 14 14 14 14 14 14 14 14 14 14 15 15 15 15 15 16 16 16 16 17 17 17 17 17 17 17 17 17 17 17 17 17 17 17 17 17 17 17 17 17
13 13 13 13 13 13 13 13 13 14 14 14 14 14 15 15 15 15 15 15 16 16 16 16 17 17 17 17 17 17 17 17 17 17 17 17 17 17 17 17 17 17 17
12 12 13 13 13 13 13 13 13 13 13 13 13 13 13 14 15 15 15 15 15 15 15 16 16 16 17 17 17 17 17 17 17 17 17 17 17 17 17 17 17 17 16
12 12 12 12 12 12 13 13 13 13 13 13 13 12 13 13 14 14 14 15 15 15 15 15 16 16 16 17 17 17 17 17 17 17 17 17 17 17 17 17 16 16 16
11 11 11 11 12 12 12 12 12 12 12 12 13 12 12 12 12 13 14 14 14 14 14 15 15 16 16 16 17 17 17 17 17 17 17 17 17 17 17 17 16 16 16
11 11 11 11 11 11 11 12 12 12 12 12 12 12 12 12 12 12 13 14 14 14 14 14 15 15 16 16 16 17 17 17 17 17 17 17 17 17 17 17 17 16 16
11 10 10 10 10 11 11 11 11 11 11 12 12 12 12 12 12 12 12 13 13 14 14 14 15 15 15 16 16 16 17 17 17 17 17 17 16 17 17 17 17 17 16
10 10 10 10 10 10 10 10 11 11 11 11 11 11 12 12 11 12 12 12 13 13 14 15 15 15 15 16 16 16 16 16 16 17 17 17 16 16 17 17 16 16 17
10 10 9 9 9 9 9 9 10 10 10 10 11 11 11 11 11 11 11 12 12 13 13 14 15 15 15 15 15 16 16 16 16 16 16 16 16 16 16 16 16 16 16
10 9 9 9 9 9 9 9 9 9 9 10 10 10 11 11 11 11 11 11 11 12 13 14 14 15 15 15 15 15 16 16 16 16 16 16 16 16 16 16 16 16 16
10 9 9 9 9 9 9 8 8 8 9 9 9 10 10 10 11 11 11 11 11 11 12 13 14 14 15 15 15 15 15 15 15 15 16 16 16 16 16 16 16 16 16
9 9 9 9 9 9 9 8 8 8 8 8 9 9 9 10 10 10 10 11 11 11 11 13 13 14 14 14 15 15 15 15 15 15 15 16 16 16 16 16 16 16 16
9 9 9 9 9 9 8 8 8 8 8 8 8 8 9 9 9 10 10 10 11 11 11 12 13 13 14 14 14 14 15 15 15 15 15 15 15 16 16 16 16 16 16
9 9 9 8 8 8 8 8 8 8 8 8 8 8 8 8 9 9 9 10 10 10 11 11 12 13 13 13 14 14 14 15 15 15 15 15 15 15 15 15 15 15 16
9 9 8 8 8 8 8 8 8 8 8 8 8 8 8 8 8 8 9 9 10 10 10 11 11 12 12 13 13 13 14 14 14 15 15 15 15 15 15 15 15 15 16
8 8 8 8 8 8 8 8 8 8 8 8 8 8 8 8 8 8 8 9 9 9 10 10 11 11 12 12 13 13 13 13 13 14 14 14 15 15 15 15 15 15 15
8 8 8 8 8 8 8 8 8 8 8 8 8 8 8 7 7 7 8 8 8 9 9 10 10 11 11 12 12 12 13 13 12 13 13 13 14 14 14 15 15 15 15
8 8 8 8 8 8 8 8 8 7 7 8 8 8 8 8 7 7 7 8 8 8 9 9 10 10 11 11 12 12 12 12 13 13 12 12 12 12 13 14 14 14 15
8 8 8 8 8 8 8 8 8 7 7 7 7 7 7 7 7 7 7 7 7 8 8 9 9 10 10 11 11 11 12 12 12 12 12 12 12 12 12 12 13 13 14
7 7 8 8 8 8 8 8 7 7 7 7 7 7 7 7 7 7 6 6 7 8 8 8 9 9 10 10 10 11 11 11 11 11 11 12 11 11 11 11 12 12 12
7 7 8 8 8 8 8 8 7 7 7 7 7 7 7 7 7 6 6 6 6 7 8 8 8 9 9 10 10 10 11 11 11 11 11 11 11 11 11 11 11 11 12

GEFSMA_850_meantemp_048.txt.gz
Temperature
17 17 17 17 17 17 17 17 17 16 17 17 17 17 17 17 17 17 17 17 18 18 18 18 18 18 18 18 18 18 17 17 17 17 17 17 17 17 17 17 17 17 17
16 16 16 16 16 16 16 16 16 16 16 16 16 16 16 17 17 17 17 17 17 18 18 18 18 18 18 18 18 18 18 18 17 17 17 17 17 17 17 17 17 17 17
15 15 15 15 15 15 15 15 15 15 16 16 16 16 16 16 16 16 16 17 17 17 18 18 18 18 18 18 18 18 18 18 18 17 17 17 17 17 17 17 17 17 17
15 15 14 15 15 15 15 15 15 15 15 15 15 15 16 16 16 16 16 16 16 16 17 17 18 18 18 18 18 18 18 18 18 18 17 17 17 17 17 17 17 17 17
14 14 14 14 14 14 14 15 15 14 15 15 15 15 15 15 15 16 16 16 16 16 16 17 17 18 18 18 18 18 18 18 17 18 17 17 17 17 17 17 17 17 17
13 13 13 13 13 14 14 14 14 13 14 14 15 15 15 15 15 16 16 16 16 16 16 16 16 17 17 18 18 18 18 18 18 17 17 17 17 17 17 17 17 17 17
12 12 12 12 13 13 13 13 13 14 14 14 14 15 16 16 16 15 15 16 16 15 15 16 16 16 16 17 17 17 18 18 18 18 17 17 17 17 17 17 17 17 17
11 12 11 12 12 12 12 12 12 13 14 14 14 15 16 17 16 16 15 15 15 15 15 15 15 16 16 16 16 17 17 18 18 18 17 17 17 17 17 17 17 17 17
11 11 11 11 11 12 12 12 12 12 13 13 14 14 15 16 16 16 15 15 15 15 15 15 15 15 16 16 16 16 17 17 17 17 17 17 17 17 17 17 17 17 17
11 11 10 10 11 11 11 11 12 12 12 13 14 13 13 13 14 15 16 15 15 15 15 15 15 15 15 15 16 16 16 17 17 17 17 17 17 17 17 17 17 17 17
10 10 10 10 10 10 10 10 11 11 12 12 13 13 13 13 13 13 15 15 15 15 15 15 15 15 15 15 15 16 16 16 17 17 17 17 17 17 17 17 17 16 17
11 10 10 10 10 10 10 10 10 10 11 11 11 12 13 13 14 14 14 14 15 15 14 14 14 15 15 15 15 15 15 16 16 16 16 17 17 17 17 17 16 16 16
12 10 10 10 10 9 9 9 9 10 10 10 10 11 12 12 13 13 13 14 14 14 14 14 14 14 14 15 15 15 15 16 16 16 16 16 16 16 16 16 16 16 16
11 10 10 9 9 9 9 9 9 10 10 9 10 10 11 11 12 12 12 13 13 14 15 14 14 14 14 14 14 14 15 15 15 16 16 16 16 16 16 16 16 16 16
11 10 10 9 9 9 9 9 9 9 9 9 10 10 10 11 11 11 12 12 12 13 14 14 14 14 14 14 14 14 14 15 15 16 16 16 16 16 16 16 16 16 16
10 10 10 10 9 9 9 9 9 9 9 9 9 9 9 10 11 11 11 11 12 12 13 14 13 13 13 13 14 14 14 14 15 15 15 15 16 16 16 16 16 16 16
10 10 10 10 9 9 9 9 9 9 9 9 9 9 9 9 9 10 11 11 11 12 12 13 13 13 13 13 14 14 14 14 15 15 15 15 15 16 16 16 16 16 16
10 10 10 9 9 9 9 9 9 9 9 9 9 9 9 9 9 9 10 10 11 11 11 12 12 12 12 13 13 14 14 14 14 14 14 14 15 15 15 15 16 16 16
10 10 9 9 9 9 9 9 8 8 8 8 8 8 8 9 9 9 9 10 10 11 11 11 12 12 12 12 13 13 13 14 14 14 14 14 14 14 15 15 15 15 16
10 10 9 9 9 9 9 9 8 8 8 8 8 8 8 8 8 8 9 9 9 10 10 11 11 12 12 12 12 13 13 13 14 14 14 14 14 14 14 15 15 15 15
10 9 9 9 9 9 9 9 8 8 8 8 8 8 8 8 8 8 8 9 9 9 10 11 11 12 12 12 12 13 13 13 13 13 14 14 14 14 14 14 15 15 15
9 9 9 9 9 9 9 8 8 8 8 8 8 8 8 8 8 8 8 8 8 8 9 10 11 11 12 12 12 12 12 12 12 13 13 13 14 14 14 14 15 15 15
9 9 9 9 8 8 8 9 8 8 8 8 8 8 8 9 8 8 8 8 8 8 8 8 9 10 11 11 11 11 12 12 12 13 13 13 13 13 14 14 14 15 15
9 9 9 9 8 8 8 8 8 8 8 8 8 8 8 8 8 8 8 8 8 8 8 8 8 9 9 10 10 10 11 12 12 12 12 12 13 13 13 13 14 14 15
9 9 8 8 8 8 8 8 8 8 8 8 8 8 8 8 8 7 7 7 7 8 8 8 8 8 8 9 9 10 10 11 11 12 12 12 12 12 12 12 13 13 14
9 9 8 8 8 8 9 9 8 8 8 8 8 8 8 8 7 7 7 7 7 7 8 8 8 8 8 9 9 9 10 11 11 11 11 12 12 12 12 12 12 12 13

GEFSMA_850_meantemp_054.txt.gz
Temperature
17 17 17 17 17 17 17 17 17 17 17 17 17 17 18 18 18 18 18 18 18 18 19 19 18 18 18 18 18 18 18 18 18 17 17 17 17 17 17 17 17 17 17
16 16 16 16 17 16 16 17 17 17 17 17 17 17 17 17 17 18 18 18 18 18 18 18 18 18 18 18 18 18 18 18 18 18 17 17 17 17 17 17 17 17 17
16 16 16 16 16 16 16 16 16 16 16 16 17 17 17 17 17 17 17 17 17 17 18 18 18 18 18 18 18 18 18 18 18 18 18 18 17 17 17 17 17 17 17
15 15 15 15 15 15 15 16 16 16 16 16 16 16 16 17 17 17 17 17 17 17 17 18 18 18 18 18 18 18 18 18 18 18 18 18 18 17 17 17 17 17 17
14 14 14 14 15 15 15 15 15 15 15 15 16 16 16 16 16 17 17 17 17 17 17 17 17 17 18 18 18 18 18 18 18 18 18 18 18 18 17 17 17 17 17
13 14 14 14 14 14 14 14 15 15 15 15 15 16 16 16 17 17 17 17 17 17 17 17 17 17 17 17 18 18 18 18 18 18 18 18 18 18 18 18 17 17 17
13 13 13 13 14 14 14 14 14 14 14 15 15 15 16 16 17 17 17 17 17 17 17 17 17 17 17 17 17 17 18 18 18 18 18 18 18 18 18 18 18 17 17
13 13 13 13 13 13 13 13 13 13 14 14 14 15 15 16 17 17 17 17 17 16 16 16 17 16 16 16 17 17 17 17 18 18 18 18 18 18 18 18 18 18 17
13 12 12 12 12 13 13 13 13 13 13 14 14 14 15 15 15 16 17 17 16 16 16 16 16 16 16 16 16 16 17 17 17 17 18 18 18 18 18 18 18 18 18
13 12 12 12 12 12 12 12 13 13 13 13 13 14 14 14 14 15 16 16 16 16 16 16 16 16 16 16 16 16 16 16 17 17 17 18 18 18 18 18 18 18 18
13 13 12 12 12 12 12 12 12 12 12 12 12 13 13 14 14 14 14 15 16 16 16 16 16 16 16 16 16 16 16 16 16 16 17 17 17 17 18 17 17 17 18
14 13 13 12 12 12 12 12 12 11 11 12 12 12 12 13 13 14 14 14 15 15 16 16 16 16 15 16 15 15 16 16 16 16 16 16 17 17 17 17 17 17 17
14 13 13 13 12 12 12 11 11 11 11 11 11 12 12 12 12 13 13 13 14 14 15 15 15 15 15 15 15 15 15 15 16 16 16 16 16 16 17 17 17 17 17
13 13 13 12 12 12 11 11 11 11 11 11 11 11 11 12 12 12 13 13 13 14 14 15 15 15 15 15 15 15 15 15 15 15 15 16 16 16 16 16 17 17 17
13 13 12 12 12 11 11 11 11 11 11 11 11 11 11 11 12 12 12 12 13 13 13 14 14 14 14 14 14 14 15 15 15 15 15 15 15 16 16 16 16 16 16
13 13 12 12 12 11 11 11 11 11 11 11 11 11 11 11 11 11 11 12 12 12 12 13 13 14 14 14 14 14 14 14 14 15 15 15 15 15 16 16 16 16 16
12 12 12 12 12 11 11 11 11 11 11 11 11 11 11 11 11 11 11 11 11 12 12 12 12 13 13 13 13 14 14 14 14 15 15 15 15 15 15 16 16 16 16
12 12 12 12 11 11 11 11 11 11 11 10 10 10 10 10 10 10 10 10 11 11 11 11 12 12 12 13 13 13 13 14 14 14 14 15 15 15 15 15 15 15 16
13 12 12 12 11 11 11 11 11 11 10 10 10 10 10 10 10 10 10 10 10 10 11 11 11 12 12 12 13 13 13 13 13 14 14 14 14 14 15 15 15 15 15
13 12 12 12 11 11 11 11 10 10 10 10 10 10 10 10 10 10 10 10 10 10 10 10 11 11 12 12 12 13 13 13 13 13 13 14 14 14 14 15 15 15 15
13 12 12 11 11 11 11 11 11 10 10 10 10 10 10 10 10 10 10 10 10 10 10 10 10 11 11 12 12 12 13 13 13 13 13 13 14 14 14 14 14 15 15
13 12 12 12 11 11 11 11 10 10 10 10 10 10 10 10 10 10 10 10 10 10 10 9 9 10 10 11 11 11 12 12 12 13 13 13 13 13 14 14 14 14 14
13 13 12 12 11 11 10 10 10 10 10 10 10 10 9 9 10 10 10 9 9 9 9 9 9 10 10 10 10 11 11 11 11 12 12 12 13 13 13 13 14 14 14
13 13 12 12 12 11 11 10 10 10 10 10 10 10 10 10 10 10 9 9 9 9 9 9 9 10 10 10 10 10 10 10 11 11 12 12 12 13 13 13 13 13 13
14 13 13 12 12 11 11 10 10 10 10 10 10 10 9 9 10 9 9 9 9 9 9 9 9 9 9 9 9 9 9 9 10 11 11 12 12 12 12 13 13 13 13
14 14 13 12 12 11 11 10 10 10 9 10 10 10 10 10 10 9 9 9 9 9 9 8 9 9 9 9 9 9 9 9 9 10 11 11 12 12 12 12 13 13 13

GEFSMA_850_meantemp_060.txt.gz
Temperature
17 17 17 17 17 17 17 17 17 17 17 17 17 17 17 17 17 17 17 17 17 17 17 18 18 18 18 18 18 18 18 18 18 18 17 17 17 17 17 17 17 17 17
16 16 16 16 16 16 16 16 16 16 16 16 17 17 17 17 17 17 17 17 17 17 17 17 17 18 18 18 18 18 18 18 18 18 17 17 17 17 17 17 17 17 17
16 16 16 15 15 15 16 16 16 16 16 16 16 16 16 16 16 17 17 17 17 17 17 17 17 17 17 17 18 18 18 18 18 18 18 17 17 17 17 17 17 17 17
15 15 15 15 15 15 15 15 15 15 15 16 16 16 16 16 16 16 16 16 16 16 17 17 17 17 17 17 17 17 18 18 18 18 18 17 17 17 17 17 17 17 17
15 15 15 14 14 15 15 15 15 15 15 15 15 15 16 16 16 16 16 16 16 16 16 16 17 17 17 17 17 17 17 17 17 18 18 17 17 17 17 17 17 17 17
15 14 14 14 14 14 14 14 14 14 14 15 15 15 15 16 16 16 16 16 16 16 16 16 16 16 16 16 17 17 17 17 17 17 17 17 17 17 17 17 17 17 17
14 14 14 14 14 14 14 14 14 14 14 14 14 15 15 15 16 16 16 16 16 16 16 16 16 16 16 16 16 16 16 17 17 17 17 17 17 17 17 17 17 17 17
14 14 14 14 14 13 13 13 14 14 14 13 14 14 15 15 15 16 16 16 16 16 16 16 16 16 16 16 16 16 16 16 16 17 17 17 17 17 17 17 17 17 17
14 14 13 13 13 13 13 13 13 13 13 13 13 13 13 14 15 15 15 15 16 16 16 16 16 16 16 16 16 16 16 16 16 16 16 17 17 17 17 17 17 17 17
14 13 13 13 13 13 13 13 13 13 13 13 13 13 13 13 13 14 15 15 15 15 15 15 15 15 15 15 16 16 16 16 16 16 16 16 16 16 17 17 17 17 17
14 13 13 13 13 13 13 13 12 12 12 12 12 13 13 13 13 13 13 14 15 15 15 15 15 15 15 15 15 15 15 15 15 15 16 16 16 16 16 16 16 17 17
14 13 13 13 13 13 13 12 12 12 12 12 12 12 12 12 12 12 12 13 13 14 14 15 15 15 15 15 15 15 15 15 15 15 15 15 16 16 16 16 16 16 17
14 13 13 13 13 12 12 12 12 12 12 12 11 11 11 11 11 11 11 12 12 13 14 14 14 14 14 14 14 14 15 15 15 15 15 15 15 15 16 16 16 16 16
14 13 13 13 13 12 12 12 12 12 12 11 11 11 11 11 11 11 11 11 11 12 12 13 13 14 13 14 14 14 14 14 14 14 15 15 15 15 15 15 16 16 16
14 13 13 13 12 12 12 12 12 12 12 11 11 11 11 11 11 11 11 11 11 11 11 12 12 13 13 13 13 13 13 14 14 14 14 14 15 15 15 15 15 16 16
14 14 13 13 13 12 12 12 12 12 11 11 11 11 11 11 11 11 11 11 11 10 10 11 12 12 12 12 13 13 13 13 13 13 14 14 14 14 15 15 15 15 15
14 14 14 13 13 12 12 12 12 11 11 11 11 11 11 11 11 11 10 10 10 10 10 11 11 11 12 12 12 12 13 13 13 13 13 14 14 14 14 14 15 15 15
15 14 14 13 13 12 12 12 12 11 11 11 11 11 11 11 11 10 10 10 10 10 10 10 11 11 11 11 12 12 12 12 13 13 13 13 14 14 14 14 14 14 15
15 14 14 14 13 13 12 12 12 11 11 11 11 11 11 10 10 10 10 10 10 10 10 10 10 11 11 11 11 11 12 12 12 12 13 13 13 13 14 14 14 14 14
16 15 15 14 14 13 13 12 12 11 11 11 11 11 10 10 10 10 10 10 10 10 10 10 10 10 10 11 10 11 11 11 12 12 12 12 13 13 13 13 14 14 14
16 16 15 15 14 14 13 12 12 12 11 11 11 10 10 10 10 10 10 10 10 10 10 10 10 10 10 10 10 10 10 11 11 11 12 12 12 12 13 13 13 14 14
16 16 16 15 15 14 14 13 12 12 11 11 11 11 10 10 10 10 10 10 10 9 9 9 9 9 10 10 10 10 10 10 10 11 11 12 12 12 12 13 13 13 13
17 16 16 15 15 15 14 13 12 12 12 11 11 11 11 11 10 10 10 10 9 9 9 9 9 9 10 10 9 9 9 9 10 10 10 11 11 12 12 12 13 13 13
17 16 16 16 15 15 14 14 13 12 12 12 11 11 11 11 10 10 10 10 10 10 9 9 9 9 9 9 9 9 9 9 9 10 10 10 11 11 12 12 12 13 13
17 16 16 16 15 15 14 14 13 13 12 12 12 11 11 10 10 10 9 9 10 10 10 9 9 9 9 9 9 9 9 9 9 10 10 9 10 11 12 12 12 13 13
16 16 16 16 15 15 14 14 13 13 12 12 12 11 11 10 10 10 9 9 9 10 9 9 9 9 9 9 9 8 8 8 8 9 10 9 10 10 11 11 12 12 12

GEFSMA_850_meantemp_066.txt.gz
Temperature
17 17 17 17 17 17 17 16 17 17 17 17 17 17 17 17 17 17 17 17 17 17 17 17 17 17 17 17 17 17 17 17 17 17 17 17 16 17 17 17 16 16 16
16 16 16 16 16 16 16 16 16 16 16 16 16 16 16 17 17 17 17 17 17 17 17 17 17 17 17 17 17 17 17 17 17 17 17 17 17 16 16 17 17 16 16
16 16 16 15 15 15 15 15 16 16 16 16 16 16 16 16 16 17 17 17 17 17 17 17 17 17 17 17 17 17 17 17 17 17 17 17 17 16 16 16 16 16 16
15 15 15 15 15 15 15 15 15 15 15 15 16 16 16 16 16 16 16 16 17 17 16 16 16 17 17 16 17 17 17 17 17 17 17 17 16 16 16 16 16 16 16
14 14 14 14 14 14 14 15 15 15 15 15 15 15 15 15 16 16 16 16 16 16 16 16 16 16 16 16 16 16 16 17 17 16 16 16 16 16 16 16 16 16 16
14 14 14 14 14 14 14 14 14 14 14 15 15 15 15 15 15 15 16 16 16 16 16 16 16 16 16 16 16 16 16 16 16 16 16 16 16 16 16 16 16 16 16
14 14 14 14 14 14 14 14 14 14 14 14 14 14 15 15 15 15 15 15 16 16 16 16 16 16 16 16 16 16 16 16 16 16 16 16 16 16 16 16 16 16 16
13 13 13 13 13 13 13 13 13 14 14 14 14 14 14 14 14 14 15 15 15 15 15 15 15 16 16 16 16 16 16 16 16 16 16 16 16 16 16 16 16 16 16
13 13 13 13 13 13 13 13 13 13 13 13 14 14 14 14 14 14 14 14 15 15 15 15 15 15 15 15 15 15 15 15 16 16 16 16 16 16 16 16 16 16 16
13 13 13 13 13 13 13 13 13 13 13 13 13 13 13 13 14 14 14 14 14 14 14 15 15 15 15 15 15 15 15 15 15 15 16 16 16 16 16 16 16 16 16
13 13 13 12 12 12 12 12 13 13 13 13 13 13 13 13 13 13 14 14 14 14 14 14 14 14 15 15 15 15 15 15 15 15 15 15 15 16 16 16 16 16 16
14 13 13 13 12 12 12 12 12 12 12 12 12 12 12 12 12 12 13 13 14 14 14 14 14 14 14 14 14 15 15 15 15 15 15 15 15 15 15 15 16 16 16
14 14 13 13 12 12 12 12 12 12 12 12 12 12 12 12 12 12 12 12 12 13 13 13 13 13 13 14 14 14 14 14 14 14 15 15 15 15 15 15 15 15 16
14 14 14 13 13 12 12 12 12 12 12 11 11 11 11 11 11 11 11 11 11 12 12 13 13 13 13 13 13 13 13 14 14 14 14 14 14 14 15 15 15 15 15
14 14 14 13 13 13 12 12 12 12 11 11 11 11 11 11 11 11 11 11 10 10 11 12 12 12 12 12 12 13 13 13 13 13 14 14 14 14 14 14 15 15 15
15 15 14 14 13 13 13 12 12 12 12 11 11 11 11 11 11 11 10 10 10 10 10 11 11 11 11 12 12 12 12 12 13 13 13 13 13 14 14 14 14 14 14
15 15 15 14 14 13 13 13 12 12 12 12 11 11 11 11 11 11 10 10 10 10 10 10 11 11 11 11 11 11 12 12 12 12 13 13 13 13 13 14 14 14 14
16 15 15 15 14 14 13 13 13 12 12 12 12 11 11 11 11 11 10 10 10 10 10 10 10 11 11 11 11 11 11 11 12 12 12 12 13 13 13 13 13 14 14
17 16 16 16 15 15 14 14 13 13 13 12 12 12 11 11 11 11 10 10 10 10 10 10 10 10 10 10 10 11 11 11 11 11 12 12 12 12 12 13 13 13 13
17 17 16 16 16 15 15 14 14 14 13 13 12 12 12 11 11 11 10 10 10 10 10 10 10 10 10 10 10 10 10 11 11 11 11 11 12 12 12 12 12 13 13
18 17 17 17 16 16 16 15 15 14 14 13 13 13 12 12 11 11 11 10 10 10 10 10 10 10 10 10 10 10 10 10 10 11 11 11 11 11 11 12 12 12 12
18 17 17 17 17 16 16 15 15 15 14 14 14 13 13 12 12 11 11 11 10 10 10 10 10 10 10 10 10 10 9 9 10 10 10 11 11 11 11 11 12 12 12
18 18 17 17 17 17 16 16 15 15 15 14 14 13 13 13 12 11 11 11 10 10 10 10 9 10 10 10 10 9 9 9 9 10 9 10 10 11 11 11 11 12 12
18 17 17 17 17 17 16 15 15 14 14 14 14 14 13 13 12 12 11 11 11 10 10 10 10 10 10 10 9 9 9 9 9 9 9 9 10 10 11 11 11 11 12
17 17 17 16 16 16 16 15 15 14 14 14 14 14 13 13 13 11 11 11 11 11 10 10 10 9 9 9 9 9 9 8 8 9 9 9 9 9 10 10 11 11 11
16 16 16 16 15 15 15 15 15 14 14 14 14 14 13 13 13 12 11 11 11 11 11 10 10 9 9 9 9 9 9 8 8 8 9 9 9 9 9 10 10 10 11

GEFSMA_850_meantemp_072.txt.gz
Temperature
16 16 16 17 16 16 16 16 16 17 16 16 16 16 16 17 17 17 17 17 17 17 17 17 17 17 17 17 17 17 17 17 17 17 17 17 17 16 16 16 16 16 16
16 16 16 16 16 16 16 16 16 16 16 16 16 16 16 17 16 17 17 17 17 17 17 17 17 17 17 17 17 17 17 17 17 17 17 16 16 16 16 16 16 16 16
16 16 15 15 15 15 16 16 16 16 16 16 16 16 16 16 16 16 17 17 17 17 17 17 17 17 17 17 17 17 17 17 16 16 16 16 16 16 16 16 16 16 16
15 15 15 15 15 15 15 15 15 15 15 16 16 16 16 16 16 16 16 16 16 17 17 17 17 16 16 17 17 17 16 16 17 16 16 16 16 16 16 16 16 16 16
15 14 14 14 14 15 15 15 15 15 15 15 16 15 16 16 16 16 16 16 16 16 16 16 16 16 16 16 17 16 16 16 16 16 16 16 16 16 16 16 16 16 16
14 14 14 14 14 14 14 14 14 14 15 15 16 16 15 15 15 16 16 16 16 16 16 16 16 16 16 16 16 16 16 16 16 16 16 16 16 16 16 16 16 16 16
14 14 14 14 14 14 14 14 14 14 15 14 15 16 16 15 15 15 15 16 16 16 16 16 16 16 16 16 16 16 16 16 16 16 16 16 16 16 16 16 16 16 16
14 14 14 14 14 13 13 13 14 14 14 14 15 17 17 16 15 15 15 15 15 16 16 16 15 15 16 16 16 16 16 16 16 16 16 16 16 16 16 16 16 16 16
14 14 13 13 13 13 13 13 13 13 14 14 14 16 17 18 17 15 15 15 15 15 15 15 15 15 15 15 15 16 16 16 16 16 16 16 16 16 16 16 16 16 16
14 14 13 13 13 13 13 13 13 13 13 15 14 14 14 15 16 17 15 15 14 15 15 15 15 15 15 15 15 15 15 16 16 16 16 16 16 16 16 16 16 16 16
14 14 13 13 13 13 13 13 13 13 13 14 14 14 14 14 15 16 17 16 15 15 14 14 14 15 15 15 15 15 15 15 15 15 16 16 16 16 16 16 16 16 16
14 14 13 13 13 13 12 12 12 12 13 13 13 14 14 15 15 15 16 15 16 15 14 14 14 14 14 14 14 15 15 15 15 15 15 15 15 15 16 16 16 16 16
14 14 14 14 13 13 13 12 12 12 12 12 12 13 13 14 14 14 15 16 15 15 14 14 14 14 14 14 14 14 14 15 15 15 15 15 15 15 15 15 15 15 15
15 14 14 14 13 13 13 13 12 12 12 12 12 12 12 13 13 13 14 14 15 16 15 14 14 14 13 13 13 14 13 14 14 14 14 15 15 15 15 15 15 15 15
15 15 15 14 14 13 13 13 13 12 12 12 12 12 12 13 13 13 13 13 14 15 16 15 14 13 13 13 13 13 13 13 14 14 14 14 14 14 14 14 15 15 15
15 15 15 15 14 14 14 13 13 12 12 12 12 12 12 12 13 12 12 13 13 13 14 15 14 14 13 12 12 12 12 13 13 13 14 14 14 14 14 14 14 14 14
16 16 15 15 15 14 14 14 13 13 13 12 12 12 12 12 12 12 12 12 12 12 13 13 13 13 12 12 12 12 12 12 12 12 13 13 13 13 13 14 14 14 14
17 16 16 16 15 15 15 14 14 14 13 13 13 13 13 12 12 12 12 12 12 12 12 12 13 13 12 11 11 11 12 12 12 12 12 13 13 13 13 13 13 14 14
17 17 17 16 16 16 15 15 15 15 14 14 14 13 13 13 12 12 12 12 12 12 12 12 12 12 12 12 11 11 11 11 12 12 12 12 13 13 13 13 13 13 13
18 17 17 17 17 16 16 16 16 15 15 15 15 14 14 13 13 13 12 12 12 12 12 12 12 12 12 12 11 11 12 12 12 12 12 12 12 12 13 13 13 13 13
18 18 17 17 17 16 16 16 16 16 16 16 15 15 15 15 14 14 13 13 12 12 12 12 13 13 13 12 12 12 12 12 12 12 12 12 12 12 12 12 12 12 13
18 17 17 17 17 17 16 17 16 16 15 15 15 15 15 15 15 15 15 14 13 12 12 12 13 13 12 12 12 11 12 12 12 12 12 12 12 12 12 12 12 12 12
18 18 17 17 17 17 17 17 16 16 15 15 15 15 15 15 14 15 15 15 14 14 13 12 12 12 12 12 11 11 11 11 11 12 11 11 12 12 12 12 12 11 12
17 17 17 17 17 17 16 16 16 15 15 15 14 14 14 14 14 14 14 13 14 14 14 13 13 13 12 11 11 10 10 10 10 10 10 11 11 12 12 12 11 11 11
16 16 16 16 16 16 15 15 15 14 14 14 14 14 14 14 14 14 13 13 13 13 13 13 13 13 12 12 11 10 10 10 11 11 11 11 11 11 11 11 11 11 11
15 15 14 14 14 14 14 14 14 13 13 13 13 13 13 13 13 13 13 13 12 13 12 12 12 12 12 12 11 11 10 10 11 12 12 11 11 11 11 11 11 11 11

GEFSMA_850_meantemp_078.txt.gz
Temperature
17 17 17 17 17 17 17 17 17 17 17 18 18 18 18 18 18 17 18 18 18 18 18 18 18 18 17 17 17 17 17 17 17 17 16 16 16 16 16 16 16 16 16
17 17 17 17 17 17 17 17 17 17 17 17 17 17 17 17 17 17 17 17 17 17 18 18 18 17 17 17 17 17 17 17 17 17 17 16 16 16 16 16 16 16 16
17 17 17 17 17 17 17 17 17 17 17 17 17 17 17 17 17 17 17 17 17 17 17 17 17 17 17 17 17 17 17 17 17 17 17 17 16 16 16 16 16 16 16
17 17 16 16 16 16 16 17 17 17 17 17 17 17 17 17 17 17 17 17 17 17 17 17 17 17 17 17 17 17 17 17 17 17 17 17 17 16 16 16 16 16 16
16 16 16 16 16 16 16 16 16 16 16 16 17 17 17 17 17 17 17 17 17 17 17 17 17 17 17 17 17 17 17 17 17 17 17 17 17 16 16 16 16 16 16
16 16 16 16 16 16 16 16 16 16 16 16 17 17 17 17 17 17 17 17 17 17 17 17 17 17 17 17 16 17 17 17 17 17 17 17 17 16 16 16 16 16 16
16 16 16 16 16 16 16 15 16 16 16 16 16 17 17 17 17 17 17 17 17 17 17 17 16 16 16 16 16 16 16 17 17 16 16 16 16 16 16 16 16 16 16
15 16 15 15 15 15 15 15 16 16 16 16 16 17 17 17 17 17 17 17 17 17 17 17 16 16 16 16 16 16 16 16 16 16 16 16 16 16 16 16 16 16 16
15 15 15 15 15 15 15 15 15 15 16 16 16 16 17 17 17 17 17 16 16 16 16 16 16 16 16 16 16 16 16 16 16 16 16 16 16 16 16 16 16 16 16
15 15 15 15 15 15 15 15 15 15 15 16 16 16 16 16 17 16 16 16 16 16 16 16 16 16 16 16 16 16 16 16 16 16 16 16 16 16 16 16 16 16 16
15 15 15 15 15 15 15 15 15 15 15 15 16 16 16 17 17 17 17 16 16 16 16 16 16 16 16 15 15 16 16 16 16 16 16 16 16 16 16 16 16 16 16
16 15 15 15 15 14 14 14 15 15 15 15 16 16 16 16 16 17 17 17 17 17 16 16 16 15 15 15 15 15 15 15 15 15 15 15 15 15 15 15 15 16 16
16 16 16 15 15 14 14 14 14 14 14 15 15 15 15 16 16 16 16 16 17 17 16 16 16 15 15 15 15 15 15 15 15 15 15 15 15 15 15 15 15 15 15
17 16 16 16 15 15 15 15 14 14 14 15 15 15 15 15 15 15 15 16 16 16 17 16 16 16 15 15 15 15 15 14 15 15 15 15 15 15 15 15 15 15 15
17 17 16 16 16 15 15 14 14 14 14 14 14 14 15 15 15 15 15 15 15 15 16 16 16 16 15 15 15 14 14 14 14 14 14 15 15 15 15 15 15 15 15
17 17 16 16 16 15 15 15 15 15 15 15 15 14 15 15 15 15 15 15 15 15 15 15 15 15 15 15 15 14 14 14 14 14 14 14 14 14 14 14 14 14 14
17 17 17 16 16 16 16 16 16 15 15 15 15 15 15 15 15 15 15 15 14 14 14 15 15 15 15 15 15 14 14 14 13 14 14 14 14 14 14 14 14 14 14
17 17 17 17 16 16 16 16 16 16 16 16 16 15 15 15 16 16 15 15 15 14 14 15 15 15 14 14 14 14 14 13 13 13 13 14 14 14 14 14 14 14 14
18 17 17 17 17 17 16 17 17 17 16 16 16 16 16 16 16 16 16 16 15 15 15 14 15 14 14 14 14 14 14 14 13 13 13 14 14 14 14 14 14 14 14
18 18 17 17 17 17 17 17 17 17 17 17 16 16 16 16 16 16 16 16 15 15 15 14 14 14 14 14 14 14 14 14 13 13 13 14 14 14 13 13 13 13 14
18 18 17 17 17 17 17 17 17 17 17 17 16 16 16 16 16 15 15 15 15 14 14 14 14 14 14 14 14 14 14 14 14 14 14 14 13 14 13 13 13 13 13
17 17 17 17 17 17 17 17 17 16 16 16 16 16 16 16 16 15 15 15 15 14 14 14 14 14 14 14 14 14 14 14 14 14 13 13 13 13 13 13 13 13 13
17 17 16 16 16 16 16 16 16 16 16 16 15 15 15 15 15 15 15 15 15 15 14 14 14 14 14 14 14 14 14 13 13 13 13 13 13 13 13 13 13 13 13
16 16 16 16 16 16 15 15 15 15 15 15 15 14 14 14 14 14 14 14 14 14 14 14 14 14 15 15 14 14 13 13 13 13 13 13 13 13 13 13 13 13 13
15 15 15 15 15 15 15 14 14 14 14 14 14 13 13 13 13 13 13 13 13 13 13 13 13 13 14 14 13 13 12 12 12 12 13 12 13 13 13 13 13 13 13
15 14 14 14 14 14 14 14 13 13 13 12 12 12 12 12 12 12 12 12 12 13 13 13 13 13 13 13 13 12 12 11 11 11 12 12 13 13 12 13 13 13 13

GEFSMA_850_meantemp_084.txt.gz
Temperature
17 17 17 17 17 17 17 17 17 17 17 17 17 17 17 17 17 17 17 17 17 17 17 17 17 17 17 17 17 17 17 17 17 17 17 17 17 17 16 16 16 16 16
17 17 17 17 17 17 17 17 17 17 17 17 17 17 17 17 17 17 17 17 17 17 17 17 17 17 17 17 17 17 17 17 17 17 17 17 17 17 17 16 16 16 16
17 17 17 17 17 16 16 16 16 17 17 17 17 17 17 17 17 17 17 17 17 17 17 17 17 17 17 17 17 17 17 17 17 17 17 17 17 17 17 16 16 16 16
17 17 17 16 16 16 16 16 16 16 16 16 16 17 17 17 17 17 17 17 17 17 17 17 17 17 17 17 17 17 17 17 17 17 17 17 17 17 17 16 16 16 16
17 17 16 16 16 16 16 16 16 16 16 16 16 16 16 16 16 16 17 16 16 17 17 17 17 17 17 17 16 16 16 16 16 17 16 16 16 16 16 16 16 16 16
17 16 16 16 16 16 16 16 16 16 16 16 16 16 16 16 16 16 16 16 16 16 16 16 16 16 16 16 16 16 16 16 16 16 16 16 16 16 16 16 16 16 16
16 16 16 16 16 16 16 16 16 16 16 16 16 16 16 16 16 16 16 16 16 16 16 16 16 16 16 16 16 16 16 16 16 16 16 16 16 16 16 16 16 16 16
16 16 16 16 16 15 15 15 15 16 16 16 16 16 16 16 16 16 16 16 16 16 16 16 16 16 16 16 16 16 16 16 16 16 16 16 16 16 16 16 16 16 16
16 16 16 15 15 15 15 15 15 16 16 16 16 16 16 16 16 16 16 16 16 16 16 16 16 16 16 16 16 16 16 15 15 15 15 15 15 15 16 16 16 16 16
16 15 15 15 15 15 15 15 15 15 15 16 16 16 16 16 16 16 16 16 16 16 16 16 16 16 16 16 16 16 15 15 15 15 15 15 15 15 15 15 15 15 15
16 15 15 15 15 15 15 15 15 15 15 15 16 16 16 16 16 16 16 16 16 16 16 16 16 16 16 16 16 15 15 15 15 15 15 15 15 15 15 15 15 15 15
16 16 15 15 15 15 15 15 15 15 15 15 15 16 16 16 16 16 16 16 16 16 16 16 16 16 16 15 15 15 15 15 15 15 15 15 15 15 15 15 15 15 15
16 16 16 15 15 15 15 15 15 15 15 15 15 15 15 16 16 16 16 16 16 16 16 16 16 16 16 15 15 15 15 15 15 15 15 15 15 15 15 15 15 15 15
16 16 16 16 15 16 16 15 15 15 15 15 15 15 15 15 15 15 15 15 16 16 16 16 16 16 15 15 15 15 15 15 15 15 15 15 15 15 15 15 15 15 15
16 16 16 16 16 16 16 15 15 15 15 15 15 15 15 15 15 15 15 15 15 15 16 16 16 16 15 15 15 15 15 15 15 15 15 14 14 15 15 15 15 15 15
16 16 16 16 16 16 16 16 16 16 16 15 15 15 15 15 15 15 15 15 15 15 15 15 15 15 15 15 15 15 15 15 14 14 14 14 14 14 14 14 14 14 14
16 16 16 16 16 16 16 16 16 16 16 16 16 16 16 15 15 15 15 15 15 15 15 15 15 15 15 15 15 15 15 14 14 14 14 14 14 14 14 14 14 14 14
17 17 17 17 16 16 16 16 16 16 16 16 16 16 16 16 16 15 15 15 15 15 15 15 16 15 15 15 15 15 15 15 14 14 14 14 14 14 14 14 14 14 14
17 17 17 17 17 17 17 17 16 16 16 16 16 16 16 16 16 16 15 15 15 15 15 15 15 15 15 15 15 15 15 15 15 15 14 14 14 14 14 14 14 14 14
17 17 17 17 17 17 17 17 16 16 16 16 16 16 16 16 16 15 15 15 15 15 15 15 15 15 15 15 15 15 15 15 15 15 15 14 14 14 14 14 14 14 14
17 17 17 17 16 16 16 16 16 16 16 16 16 16 16 15 15 15 15 15 15 14 14 14 14 15 15 15 15 15 14 15 15 15 14 14 14 14 14 14 14 14 14
17 17 17 16 16 16 16 16 16 16 16 16 16 15 15 15 15 14 14 14 14 14 14 14 14 14 14 14 14 14 14 14 14 15 14 14 14 14 14 14 14 14 14
16 16 16 16 16 16 15 15 15 15 15 15 15 15 14 14 14 14 14 14 13 13 13 13 13 13 13 13 13 13 13 13 13 14 13 13 14 14 14 14 14 14 14
15 15 15 15 15 15 15 14 14 14 14 14 14 13 13 13 13 13 13 13 13 13 13 12 12 12 12 12 12 12 12 12 12 13 13 12 13 13 14 14 14 14 14
14 14 14 14 14 14 13 13 13 13 13 13 12 12 12 12 12 12 12 12 12 12 12 12 12 12 12 12 12 12 12 12 12 12 12 12 13 13 13 13 14 14 14
14 13 13 13 13 13 12 12 12 12 12 12 12 11 11 11 11 11 11 11 11 11 11 11 11 11 11 11 11 11 11 11 11 11 12 12 12 12 12 13 13 13 13

GEFSMA_850_meantemp_090.txt.gz
Temperature
17 17 17 17 17 17 17 17 17 17 17 17 17 17 17 17 17 17 17 17 17 17 17 17 17 17 17 17 16 16 16 16 16 16 16 16 16 16 16 16 16 16 16
17 17 17 17 17 17 17 17 17 17 17 17 17 17 17 17 17 17 17 17 17 17 17 17 17 17 16 16 16 16 16 16 16 16 16 16 16 16 16 16 16 16 16
17 17 17 17 16 16 16 16 16 16 16 17 17 17 17 17 17 17 17 17 17 17 16 16 16 16 16 16 16 16 16 16 16 16 16 16 16 16 16 16 16 16 16
17 16 16 16 16 16 16 16 16 16 16 16 16 16 17 17 16 16 16 16 16 16 16 16 16 16 16 16 16 16 16 16 16 16 16 16 16 16 16 16 16 16 16
16 16 16 16 16 16 16 16 16 16 16 16 16 16 16 16 16 16 16 16 16 16 16 16 16 16 16 16 16 16 16 16 16 16 16 16 16 16 16 16 16 16 16
16 16 16 16 16 15 15 15 16 16 16 16 16 16 16 16 16 16 16 16 16 16 16 16 16 16 16 16 16 16 16 16 16 16 16 16 16 16 16 16 16 16 16
16 16 16 16 15 15 15 15 15 15 15 15 15 16 16 16 16 16 16 16 16 16 16 16 16 16 16 16 16 16 16 15 15 15 15 15 15 15 15 15 15 15 15
16 16 15 15 15 15 15 15 15 15 15 15 15 16 16 15 16 16 16 16 16 16 16 16 16 15 15 15 15 15 15 15 15 15 15 15 15 15 15 15 15 15 15
15 15 15 15 15 15 15 15 15 15 15 15 15 16 16 16 16 16 16 16 16 16 16 16 16 15 15 15 15 15 15 15 15 15 15 15 15 15 15 15 15 15 15
15 15 15 15 15 15 15 15 15 15 15 15 15 15 16 16 16 16 16 16 16 16 16 16 15 15 15 15 15 15 15 15 15 15 15 15 15 15 15 15 15 15 15
15 15 15 15 15 15 15 15 15 15 15 15 15 15 16 16 16 16 16 16 16 16 16 16 15 15 15 15 15 15 15 15 15 15 15 15 15 15 15 15 15 15 15
15 15 15 15 15 15 15 15 15 15 15 15 15 15 15 15 16 16 16 16 16 16 16 16 16 15 15 15 15 15 15 15 15 15 15 15 15 15 15 15 15 15 15
16 15 15 15 15 15 14 14 14 15 15 15 15 15 15 15 15 15 16 16 16 16 16 16 16 16 15 15 15 15 15 15 15 14 14 14 14 15 15 15 15 15 15
16 15 15 15 15 14 14 14 14 14 14 14 15 15 15 15 15 15 15 15 15 15 16 16 16 16 15 15 15 15 15 15 14 14 14 14 14 14 14 14 14 14 14
16 15 15 15 15 14 14 14 14 14 14 14 14 14 15 15 15 15 15 15 15 15 15 15 15 15 15 15 15 15 15 15 14 14 14 14 14 14 14 14 14 14 14
16 15 15 15 15 15 14 14 14 14 14 14 14 14 14 14 14 15 15 15 15 14 15 15 15 15 15 15 15 15 15 15 15 14 14 14 14 14 14 14 14 14 14
16 16 16 15 15 15 15 14 14 14 14 14 14 14 14 14 14 14 14 14 14 14 14 15 15 15 15 15 15 15 15 15 15 15 14 14 14 14 14 14 14 14 14
16 16 16 16 15 15 15 15 15 14 14 14 14 14 14 14 14 14 14 14 14 14 14 15 15 15 15 15 15 15 15 15 15 15 15 15 14 14 14 14 14 14 14
16 16 16 16 16 16 15 15 15 15 15 14 14 14 14 14 14 14 14 14 14 14 14 14 15 15 15 15 15 15 15 15 15 15 15 15 15 14 14 14 14 14 14
16 16 16 16 16 16 15 15 15 15 15 15 14 14 14 14 14 14 14 14 14 14 14 14 14 14 15 15 15 15 15 15 15 15 15 15 15 15 15 14 14 14 14
16 16 16 16 16 15 15 15 15 15 15 15 14 14 14 14 14 14 14 14 14 14 14 13 14 14 14 14 14 14 14 14 14 15 15 15 15 14 14 14 14 14 14
16 16 16 15 15 15 15 15 15 15 15 14 14 14 14 14 14 14 14 14 14 13 13 13 13 13 13 13 13 13 12 12 13 14 14 14 14 14 14 14 14 14 14
16 16 15 15 15 15 15 15 14 14 14 14 14 13 13 13 13 13 13 13 13 12 12 12 12 12 12 12 12 12 12 12 12 12 12 12 13 13 14 14 14 14 14
15 15 15 14 14 14 14 14 14 13 13 13 13 12 12 12 12 12 12 12 12 12 11 11 11 11 11 11 11 10 10 11 11 11 11 11 12 12 13 13 13 13 13
14 14 14 13 13 13 13 13 12 12 12 12 11 11 11 11 11 11 11 11 11 11 10 10 10 10 10 10 10 10 10 10 10 10 11 10 11 11 11 12 12 13 13
13 13 13 12 12 12 12 11 11 11 11 11 11 10 10 10 10 10 10 10 10 10 10 10 9 9 9 9 9 9 9 8 8 8 9 9 9 9 9 10 11 11 11

GEFSMA_850_meantemp_096.txt.gz
Temperature
17 17 17 17 17 17 17 17 16 17 17 16 17 17 17 17 17 17 17 17 17 17 17 17 17 16 16 16 16 16 16 16 16 16 16 16 16 16 16 16 16 16 16
17 17 17 17 17 17 17 16 16 16 17 17 17 17 17 17 17 17 17 17 17 17 17 17 17 16 16 16 16 16 16 16 16 16 16 16 16 16 16 16 16 16 16
17 17 17 17 17 16 16 16 16 16 17 17 16 16 17 16 16 16 16 16 16 17 17 17 16 16 16 16 16 16 16 16 16 16 16 16 16 16 16 16 16 16 16
17 17 17 17 16 16 16 16 16 16 16 16 16 16 16 16 16 16 16 16 16 16 16 17 16 16 16 16 16 16 16 16 16 16 16 16 16 16 16 16 16 16 16
17 16 16 16 16 16 16 16 16 17 16 16 16 16 16 16 16 16 16 16 16 16 16 16 16 16 16 16 16 16 16 16 16 16 16 16 16 16 16 16 16 16 15
17 16 16 16 16 16 16 16 16 16 16 16 17 17 16 16 16 16 16 16 16 16 16 16 16 16 16 16 16 16 16 16 16 16 16 16 16 16 16 16 16 15 15
16 16 16 16 16 16 16 16 16 16 16 16 17 17 17 17 16 16 16 16 16 16 16 16 16 16 16 16 16 16 16 16 16 16 16 16 16 16 16 16 16 15 15
16 16 16 16 16 16 15 15 15 16 16 16 17 17 18 17 16 17 16 16 16 16 16 16 16 16 16 16 16 16 16 16 16 16 15 15 15 16 16 15 15 15 15
16 16 16 16 15 15 15 15 15 15 16 16 16 17 18 19 18 17 16 16 16 16 16 16 16 15 15 16 15 15 16 16 15 15 15 15 15 15 15 15 15 15 15
16 15 15 15 15 15 15 15 15 15 15 16 16 16 16 17 18 18 17 17 16 16 16 16 16 16 15 15 15 15 15 15 15 15 15 15 15 15 15 15 15 15 15
16 15 15 15 15 15 15 15 15 15 15 16 16 16 16 16 17 18 18 18 17 17 16 16 16 16 16 15 15 15 15 15 15 15 15 15 15 15 15 15 15 15 15
15 15 15 15 15 15 14 14 15 15 15 15 16 16 16 17 17 18 18 17 18 17 16 16 16 16 16 16 15 15 15 15 15 15 15 15 15 15 15 15 15 15 15
15 15 15 15 15 15 14 14 15 15 15 15 15 16 16 16 17 17 17 18 17 17 16 16 16 16 16 16 15 15 15 15 15 15 15 15 15 15 15 15 15 15 15
16 15 15 15 15 15 14 15 15 14 14 15 15 15 15 16 16 16 17 17 18 18 17 17 16 16 16 16 15 15 15 15 15 15 15 15 15 15 15 15 15 15 15
15 15 15 15 15 15 15 15 14 14 14 14 15 15 15 15 15 16 16 16 17 18 19 17 17 16 15 15 15 15 15 15 15 15 15 15 15 15 15 15 15 15 15
15 15 15 15 15 15 15 15 14 14 14 14 14 14 14 15 15 15 15 15 16 16 17 18 16 16 15 15 15 15 15 15 16 15 15 15 15 15 15 15 15 15 15
16 16 15 15 15 15 15 15 14 14 14 14 14 14 14 14 15 15 15 15 15 15 16 17 16 16 15 15 15 15 15 15 15 15 15 15 15 15 15 15 15 15 15
16 16 15 15 15 15 15 15 15 14 14 14 14 14 14 14 14 15 15 15 15 15 15 15 16 16 15 14 15 15 15 15 15 15 15 15 15 15 15 15 15 15 15
16 16 15 15 15 15 15 15 15 15 15 14 14 14 14 14 14 14 14 15 15 15 14 15 15 15 15 14 14 14 15 15 15 15 15 15 15 15 15 15 15 15 15
16 15 15 15 15 15 15 15 15 15 15 14 14 14 14 14 14 14 14 14 14 14 14 14 15 15 14 14 14 14 14 14 14 15 15 14 14 15 15 15 15 15 15
15 15 15 15 15 15 15 15 15 15 15 15 14 14 14 14 14 14 14 14 14 14 14 14 14 14 14 14 13 14 14 14 14 14 14 14 14 14 14 14 14 14 14
15 15 15 15 15 15 15 15 15 15 14 14 14 14 14 14 14 14 13 13 13 13 13 13 13 13 13 12 12 12 12 12 12 13 13 13 13 13 13 13 13 13 13
15 15 15 15 15 15 15 15 15 14 14 14 13 13 13 13 13 13 13 13 12 12 12 12 12 12 11 11 11 11 11 11 11 11 11 11 12 12 12 13 12 12 12
14 14 14 14 14 14 14 14 13 13 13 13 12 12 12 12 12 12 11 11 11 11 11 11 11 10 10 10 10 10 10 10 10 10 10 10 11 11 12 12 12 11 11
14 13 13 13 13 13 12 12 12 12 12 11 11 11 11 11 11 11 10 10 10 9 10 10 10 10 10 10 10 9 9 9 10 10 10 10 10 10 10 11 11 11 10
13 12 12 12 12 12 11 11 11 11 10 10 10 10 10 10 10 10 9 9 9 8 8 8 8 8 8 8 8 8 7 8 8 9 9 8 9 9 9 10 10 10 10